This is the latest recevied weather packets stored in our database for station/object SP9TKN-1. If no packets are shown the sender has not sent any weather packets the latest 10 day(s).
| Time | Temp. | Humidity | Pressure | Rain* | Wind** | Luminosity | Snow |
|---|---|---|---|---|---|---|---|
| 1788511805 | 22.22° C | 55% | 991.3 hPa | - | - | - | - |
| 1788510908 | 21.67° C | 58% | 991.2 hPa | - | - | - | - |
| 1788509107 | 20.56° C | 60% | 991.6 hPa | - | - | - | - |
| 1788508207 | 20.56° C | 61% | 991.6 hPa | - | - | - | - |
| 1788507308 | 20.56° C | 61% | 991.7 hPa | - | - | - | - |
| 1788506408 | 20° C | 62% | 991.9 hPa | - | - | - | - |
| 1788505507 | 20° C | 62% | 991.9 hPa | - | - | - | - |
| 1788504608 | 20° C | 62% | 991.8 hPa | - | - | - | - |
| 1788503708 | 19.44° C | 63% | 991.9 hPa | - | - | - | - |
| 1788502806 | 19.44° C | 64% | 991.8 hPa | - | - | - | - |
| 1788501906 | 18.89° C | 64% | 991.8 hPa | - | - | - | - |
| 1788501006 | 18.89° C | 65% | 991.8 hPa | - | - | - | - |
| 1788500108 | 18.33° C | 66% | 991.6 hPa | - | - | - | - |
| 1788499206 | 18.33° C | 66% | 991.5 hPa | - | - | - | - |
| 1788498307 | 18.33° C | 67% | 991.6 hPa | - | - | - | - |
| 1788497406 | 17.78° C | 67% | 991.6 hPa | - | - | - | - |
| 1788496508 | 18.33° C | 66% | 991.8 hPa | - | - | - | - |
| 1788495606 | 17.78° C | 66% | 991.7 hPa | - | - | - | - |
| 1788494706 | 17.78° C | 66% | 991.6 hPa | - | - | - | - |
| 1788493805 | 17.78° C | 65% | 991.8 hPa | - | - | - | - |
| 1788492005 | 18.33° C | 64% | 991.8 hPa | - | - | - | - |
| 1788491105 | 18.33° C | 64% | 991.9 hPa | - | - | - | - |
| 1788490204 | 18.33° C | 64% | 991.9 hPa | - | - | - | - |
| 1788489308 | 18.33° C | 63% | 991.8 hPa | - | - | - | - |
| 1788488409 | 18.33° C | 62% | 991.9 hPa | - | - | - | - |
* Rain since midnight (hover to see other rain measurements)
** Current wind speed in m/s (hover to see current wind gust speed)